| time (UTC) | temp F | wind direction | speed MPH | gust MPH | rain 1hr in | rain 24hr in | rain mn in | humidity % | barometer mb |
| 20260505213030 | 43 | 102 | 9.0 | 13.0 | 0.00 | 0.00 | 0.00 | 70 | 1011.9 |
| 20260505204530 | 44 | 109 | 8.0 | 14.0 | 0.00 | 0.00 | 0.00 | 70 | 1012.3 |
| 20260505193041 | 44 | 105 | 12.0 | 19.0 | 0.00 | 0.00 | 0.00 | 70 | 1012.8 |
| 20260505190029 | 43 | 125 | 12.0 | 17.0 | 0.00 | 0.00 | 0.00 | 72 | 1013.1 |
| 20260505184525 | 43 | 124 | 13.0 | 21.0 | 0.00 | 0.00 | 0.00 | 72 | 1013.3 |
| 20260505183039 | 43 | 105 | 11.0 | 17.0 | 0.00 | 0.00 | 0.00 | 73 | 1013.3 |
| 20260505181526 | 43 | 99 | 13.0 | 17.0 | 0.00 | 0.00 | 0.00 | 74 | 1013.4 |
| 20260505180032 | 43 | 111 | 11.0 | 19.0 | 0.00 | 0.00 | 0.00 | 75 | 1013.8 |
| 20260505174531 | 43 | 89 | 11.0 | 19.0 | 0.00 | 0.00 | 0.00 | 75 | 1013.8 |
| 20260505173034 | 43 | 98 | 11.0 | 16.0 | 0.00 | 0.00 | 0.00 | 77 | 1013.8 |
| 20260505171530 | 43 | 97 | 13.0 | 17.0 | 0.00 | 0.00 | 0.00 | 76 | 1013.9 |
| 20260505170025 | 43 | 106 | 11.0 | 16.0 | 0.00 | 0.00 | 0.00 | 76 | 1013.9 |
| 20260505164531 | 43 | 94 | 11.0 | 15.0 | 0.00 | 0.00 | 0.00 | 75 | 1014.1 |
| 20260505163023 | 43 | 117 | 7.0 | 13.0 | 0.00 | 0.00 | 0.00 | 76 | 1014.0 |
| 20260505161525 | 43 | 86 | 7.0 | 14.0 | 0.00 | 0.00 | 0.00 | 76 | 1014.0 |
| 20260505153028 | 43 | 105 | 11.0 | 17.0 | 0.00 | 0.00 | 0.00 | 76 | 1014.1 |
| 20260505123019 | 46 | 97 | 5.0 | 10.0 | 0.00 | 0.00 | 0.00 | 70 | 1012.6 |
| 20260505121524 | 46 | 105 | 5.0 | 11.0 | 0.00 | 0.00 | 0.00 | 69 | 1012.3 |
| 20260505120033 | 46 | 113 | 5.0 | 9.0 | 0.00 | 0.00 | 0.00 | 68 | 1012.0 |
| 20260505114534 | 47 | 102 | 3.0 | 5.0 | 0.00 | 0.00 | 0.00 | 68 | 1011.6 |
| 20260505113010 | 46 | 125 | 3.0 | 6.0 | 0.00 | 0.00 | 0.00 | 67 | 1011.8 |
| 20260505111518 | 46 | 98 | 2.0 | 3.0 | 0.00 | 0.00 | 0.00 | 66 | 1011.5 |
| 20260505101515 | 47 | 83 | 1.0 | 5.0 | 0.00 | 0.00 | 0.00 | 67 | 1011.9 |
| 20260505100016 | 47 | 27 | 5.0 | 6.0 | 0.00 | 0.00 | 0.00 | 66 | 1011.6 |
| 20260505094524 | 48 | 28 | 3.0 | 6.0 | 0.00 | 0.00 | 0.00 | 67 | 1011.7 |
| 20260505093027 | 48 | 19 | 6.0 | 8.0 | 0.00 | 0.00 | 0.00 | 67 | 1011.8 |
| 20260505091530 | 48 | 22 | 5.0 | 7.0 | 0.00 | 0.00 | 0.00 | 66 | 1011.6 |
| 20260505090026 | 49 | 32 | 4.0 | 7.0 | 0.00 | 0.00 | 0.00 | 66 | 1011.7 |
| 20260505084520 | 50 | 36 | 6.0 | 9.0 | 0.00 | 0.00 | 0.00 | 64 | 1011.7 |
| 20260505083025 | 50 | 34 | 7.0 | 11.0 | 0.00 | 0.00 | 0.00 | 63 | 1011.7 |
| 20260505081536 | 50 | 19 | 8.0 | 11.0 | 0.00 | 0.00 | 0.00 | 64 | 1011.7 |
| 20260505080045 | 51 | 9 | 8.0 | 12.0 | 0.00 | 0.00 | 0.00 | 64 | 1011.7 |
| 20260505074514 | 51 | 4 | 8.0 | 12.0 | 0.00 | 0.00 | 0.00 | 64 | 1011.6 |
| 20260505073020 | 51 | 360 | 10.0 | 13.0 | 0.00 | 0.00 | 0.00 | 64 | 1011.6 |
| 20260505071525 | 52 | 27 | 8.0 | 14.0 | 0.00 | 0.00 | 0.00 | 62 | 1011.3 |
| 20260505070024 | 53 | 25 | 13.0 | 16.0 | 0.00 | 0.00 | 0.00 | 61 | 1011.1 |
| 20260505064528 | 53 | 25 | 9.0 | 13.0 | 0.00 | 0.00 | 0.00 | 59 | 1011.2 |
| 20260505063017 | 53 | 342 | 10.0 | 16.0 | 0.00 | 0.00 | 0.00 | 59 | 1011.4 |
| 20260505061524 | 54 | 347 | 13.0 | 20.0 | 0.00 | 0.00 | 0.00 | 57 | 1011.2 |
| 20260505060026 | 54 | 33 | 15.0 | 20.0 | 0.00 | 0.00 | 0.00 | 57 | 1011.5 |
| 20260505054524 | 54 | 356 | 16.0 | 20.0 | 0.00 | 0.00 | 0.00 | 56 | 1011.5 |
| 20260505053028 | 55 | 23 | 16.0 | 19.0 | 0.00 | 0.00 | 0.00 | 55 | 1011.2 |
| 20260505051523 | 55 | 22 | 11.0 | 17.0 | 0.00 | 0.00 | 0.00 | 54 | 1011.2 |
| 20260505041545 | 56 | 9 | 13.0 | 21.0 | 0.00 | 0.00 | 0.00 | 53 | 1011.1 |
| 20260505040027 | 57 | 31 | 17.0 | 27.0 | 0.00 | 0.00 | 0.00 | 51 | 1010.9 |
| 20260505033027 | 57 | 20 | 22.0 | 31.0 | 0.00 | 0.00 | 0.00 | 49 | 1009.8 |
| 20260505031524 | 58 | 352 | 24.0 | 32.0 | 0.00 | 0.00 | 0.00 | 48 | 1009.8 |
| 20260505030035 | 58 | 350 | 25.0 | 35.0 | 0.00 | 0.00 | 0.00 | 47 | 1009.2 |
| 20260505021528 | 60 | 355 | 27.0 | 39.0 | 0.00 | 0.00 | 0.00 | 43 | 1008.6 |
| 20260505020029 | 61 | 338 | 25.0 | 39.0 | 0.00 | 0.00 | 0.00 | 41 | 1008.3 |
| 20260505014526 | 63 | 6 | 27.0 | 38.0 | 0.00 | 0.00 | 0.00 | 37 | 1008.0 |
| 20260505011530 | 64 | 35 | 18.0 | 23.0 | 0.00 | 0.00 | 0.00 | 35 | 1007.0 |
| 20260505010026 | 65 | 9 | 16.0 | 24.0 | 0.00 | 0.00 | 0.00 | 33 | 1006.7 |
| 20260505004530 | 66 | 9 | 18.0 | 27.0 | 0.00 | 0.00 | 0.00 | 30 | 1006.6 |
| 20260505001524 | 68 | 61 | 16.0 | 25.0 | 0.00 | 0.00 | 0.00 | 28 | 1006.3 |
| 20260505000011 | 68 | 34 | 18.0 | 32.0 | 0.00 | 0.00 | 0.00 | 27 | 1006.2 |
| 20260504234516 | 69 | 35 | 17.0 | 28.0 | 0.00 | 0.00 | 0.00 | 26 | 1006.1 |
| 20260504233021 | 69 | 4 | 25.0 | 33.0 | 0.00 | 0.00 | 0.00 | 25 | 1006.2 |
| 20260504231525 | 70 | 348 | 22.0 | 28.0 | 0.00 | 0.00 | 0.00 | 25 | 1006.2 |
| 20260504230024 | 73 | 300 | 17.0 | 24.0 | 0.00 | 0.00 | 0.00 | 18 | 1005.9 |
| 20260504224513 | 74 | 292 | 21.0 | 33.0 | 0.00 | 0.00 | 0.00 | 19 | 1005.6 |
| 20260504223018 | 75 | 284 | 19.0 | 24.0 | 0.00 | 0.00 | 0.00 | 18 | 1005.5 |
| 20260504220024 | 74 | 276 | 15.0 | 23.0 | 0.00 | 0.00 | 0.00 | 19 | 1006.1 |
| 20260504214525 | 74 | 269 | 16.0 | 29.0 | 0.00 | 0.00 | 0.00 | 18 | 1006.2 |